Dewpoint
52 52 52 53 53 54 54 54 54 54 54 54 55 55 55 55 56 56 57 60 61 63 63 63 63 63 62 60 60 60 60 60 60 60 60 61 61 61 61 61 61 61 61 61 61 60 60 60 61 61 61 61 62 62 63 63 63 63 64 64 64 64 64 64 64 63 63 63 63 63 63 62 62 62 62 62 62 62 62 62 62 62 62 63 64 65
51 51 51 51 51 52 53 52 51 51 51 52 53 53 53 54 54 55 56 57 60 62 63 63 63 63 63 61 60 59 59 59 60 60 60 60 60 60 60 61 61 61 61 60 60 60 60 60 60 60 60 60 61 61 62 62 62 63 63 63 63 64 64 64 64 64 63 64 63 63 62 62 62 62 62 62 62 62 62 62 62 63 63 64 65 65
51 51 50 48 48 50 51 49 48 49 49 50 50 50 50 51 51 52 53 54 56 59 62 63 63 63 63 62 60 59 59 59 59 59 59 59 60 60 60 60 60 60 60 60 60 60 60 60 60 60 60 60 60 60 61 61 61 61 61 62 62 62 62 63 63 63 63 63 62 62 61 61 61 62 62 62 62 62 62 63 63 63 64 65 65 65
51 50 48 46 45 46 47 46 46 47 47 47 47 47 47 47 47 48 48 49 51 54 58 61 63 63 63 62 61 60 58 58 58 58 58 58 59 59 59 60 60 60 60 60 60 60 59 59 59 59 59 59 59 60 60 60 60 60 60 60 60 60 61 61 61 61 61 61 61 60 60 61 61 62 62 62 62 63 63 63 63 64 64 65 65 65
49 48 45 44 43 43 43 44 44 45 46 46 46 45 45 45 45 46 46 47 48 50 52 55 57 60 61 61 61 60 59 58 58 58 58 58 58 58 59 59 59 59 59 59 59 59 59 59 59 59 59 59 59 59 59 59 59 59 59 59 59 59 60 60 60 60 60 60 60 60 60 60 60 61 61 62 62 63 63 63 63 64 65 65 65 65
47 45 43 42 42 42 42 43 44 45 45 44 44 44 44 44 44 44 45 45 46 47 47 48 50 52 54 55 57 58 58 58 58 58 58 58 58 58 58 58 59 59 59 59 58 58 58 58 58 59 59 59 59 59 58 58 58 58 58 58 58 58 59 59 59 59 59 59 59 59 59 59 60 60 60 61 62 62 63 63 63 64 64 65 65 65
45 42 42 41 41 41 42 42 43 43 43 43 43 43 43 43 43 43 43 43 44 44 46 47 47 48 49 50 52 54 55 56 56 57 58 58 58 58 58 58 58 58 59 58 58 58 58 58 58 58 59 59 59 58 58 58 58 58 57 58 58 58 58 58 58 58 58 58 58 58 58 59 59 59 59 60 61 62 62 63 63 63 64 64 65 65
44 41 41 41 41 41 41 41 42 42 43 43 43 42 42 43 43 43 43 42 42 43 44 45 46 47 47 48 50 51 51 51 53 55 56 57 58 58 58 58 58 58 59 59 59 58 58 58 58 58 59 58 58 58 58 58 57 57 57 57 57 57 58 58 58 58 58 58 58 58 58 58 58 58 58 59 60 60 61 62 63 63 63 64 64 64
46 43 42 41 40 40 40 40 41 42 42 42 42 42 42 42 42 42 42 42 41 41 42 42 43 44 45 46 47 48 49 50 51 51 53 54 56 57 59 59 59 59 59 59 59 59 59 58 58 58 58 58 58 58 57 57 57 57 57 57 57 57 57 57 57 57 58 58 58 58 57 57 57 57 57 58 58 59 60 61 62 63 63 63 63 64
47 45 42 41 40 40 40 40 40 41 42 42 42 42 43 42 42 42 41 40 40 40 40 40 40 41 42 43 44 45 47 48 49 50 50 50 52 55 57 57 58 58 58 58 58 58 58 58 58 57 57 57 57 57 57 56 56 56 56 56 56 57 57 57 57 57 57 58 58 57 57 57 57 57 57 57 57 58 58 60 60 61 62 62 63 63
46 44 42 40 40 40 39 39 40 41 42 42 42 42 42 42 42 41 40 39 39 39 39 39 39 39 39 41 42 43 43 44 45 46 47 47 49 51 51 52 53 54 55 55 55 55 55 56 56 56 56 56 56 56 56 56 56 56 56 56 56 56 57 57 57 57 57 57 57 57 57 57 57 57 56 56 56 56 57 58 59 60 60 61 62 63
44 42 40 39 39 39 39 39 40 41 42 42 42 41 40 41 41 41 40 38 38 38 38 38 38 38 38 39 40 41 42 42 42 42 43 44 45 46 47 48 49 50 51 51 51 51 52 53 53 54 54 55 55 55 55 55 55 55 55 56 56 56 56 56 57 57 57 57 57 57 57 57 57 56 56 56 56 56 56 56 57 58 59 60 60 61
42 40 39 39 39 39 40 40 40 41 41 42 41 40 39 39 40 40 39 38 38 38 38 38 38 38 39 38 39 40 41 41 41 41 42 42 42 43 44 45 46 46 47 48 48 49 50 51 51 51 51 52 52 52 53 53 53 53 54 54 54 55 55 56 56 56 56 57 57 56 56 56 56 56 56 56 56 56 56 56 56 56 57 58 59 60
42 40 40 40 40 40 40 41 41 42 42 42 41 40 39 39 39 39 38 38 38 38 38 38 38 38 39 39 39 39 40 40 41 41 41 41 41 42 43 43 44 45 45 46 46 47 48 49 49 49 50 50 50 51 51 51 51 51 52 52 52 52 53 54 55 55 55 56 56 56 56 56 56 56 56 56 55 55 55 55 55 56 56 56 57 58
42 41 41 41 41 41 41 42 42 42 42 41 40 40 39 39 39 39 38 38 38 38 39 38 38 38 39 39 38 38 39 40 40 40 40 40 41 42 43 43 43 44 44 45 45 46 47 47 48 48 49 49 49 50 50 50 50 50 50 50 50 50 51 51 51 52 52 53 53 53 53 54 54 54 54 54 54 54 54 54 54 54 55 55 56 56
42 42 42 42 42 42 42 42 42 42 42 40 40 39 39 39 39 40 39 38 38 39 39 39 38 38 38 39 39 39 38 39 40 39 39 39 40 41 42 42 43 43 43 44 44 45 46 47 47 47 48 48 48 48 48 49 49 49 49 49 49 49 49 49 50 50 50 51 51 51 51 51 51 52 52 52 52 52 52 52 53 53 54 54 55 55
42 42 42 42 42 42 41 41 41 41 41 40 40 40 40 40 40 40 40 39 39 40 40 39 38 38 37 38 38 38 38 38 38 38 38 38 39 40 42 42 42 42 42 43 44 44 46 46 47 47 47 48 48 48 48 48 49 49 49 48 48 48 48 49 49 49 49 49 49 49 50 50 50 50 50 50 51 51 51 51 51 52 52 53 53 54
42 42 42 42 42 42 41 41 41 40 40 40 40 40 41 41 41 40 40 40 40 40 40 40 39 38 37 35 36 37 38 38 38 38 38 37 38 39 41 42 42 41 42 42 43 44 45 46 46 47 47 48 48 48 48 48 48 48 48 48 48 48 48 48 48 48 48 48 48 48 48 48 48 48 48 48 49 49 49 50 50 51 51 51 51 52
42 42 42 42 42 42 41 41 41 41 40 40 40 40 40 40 40 40 40 41 41 40 40 39 38 37 36 35 35 36 36 38 38 38 37 36 37 38 39 41 41 40 40 41 42 43 45 45 46 47 47 47 47 47 48 48 48 48 48 47 47 47 47 47 47 47 47 47 47 47 47 47 47 47 47 48 48 48 48 49 49 49 50 50 50 51
42 42 42 42 42 41 41 41 41 41 41 41 41 41 40 40 40 40 40 40 40 40 39 38 37 35 35 34 34 35 36 38 38 37 36 35 36 37 38 39 39 39 39 39 40 42 44 45 45 46 47 47 47 47 47 47 47 47 47 47 47 47 47 47 47 47 47 47 47 47 47 47 47 47 47 47 47 48 48 48 48 48 49 49 49 50
43 42 42 42 42 42 41 41 42 42 42 42 41 41 40 40 40 40 40 39 39 38 38 36 35 34 34 34 34 34 35 37 37 37 36 35 35 35 37 38 38 38 37 38 39 41 43 44 45 45 46 47 47 47 47 47 47 47 47 47 47 47 47 47 47 47 47 47 47 47 47 47 47 47 47 47 47 47 47 47 48 48 48 48 49 49
43 42 42 42 42 42 42 42 42 42 43 42 41 40 40 40 39 39 39 38 38 37 37 35 34 34 34 34 34 34 36 36 36 36 36 34 34 34 35 37 37 37 36 37 38 39 41 43 44 45 46 46 46 46 46 47 47 47 47 47 47 47 47 47 47 47 47 47 47 47 47 47 47 47 47 47 47 47 47 47 47 47 47 48 48 48
42 42 42 42 42 42 42 42 42 42 43 42 41 41 41 40 40 39 39 38 37 36 35 34 34 35 35 35 35 36 36 36 36 36 36 33 33 33 34 36 36 35 35 35 37 38 39 41 42 44 46 46 46 46 46 46 46 46 46 46 46 46 46 46 46 46 46 46 46 46 46 46 46 46 46 46 46 46 47 47 47 47 47 47 47 47
42 42 42 42 42 42 42 42 42 42 42 41 40 40 40 40 40 39 39 38 37 36 35 35 35 35 35 36 35 35 36 36 36 36 35 33 33 33 34 35 35 35 34 35 36 37 38 38 40 42 44 45 45 45 45 45 45 46 46 46 46 46 46 46 46 46 46 46 46 46 46 46 46 46 46 46 46 46 46 46 46 46 46 46 46 47
42 42 42 42 42 42 42 42 42 42 41 40 39 39 39 39 39 38 38 37 37 36 36 36 35 35 34 35 35 34 35 36 36 35 35 33 33 33 33 34 34 34 34 35 36 37 37 37 38 39 42 43 44 45 45 45 45 45 45 45 45 45 45 45 45 45 45 45 45 45 45 45 45 45 45 45 45 45 45 45 45 45 45 45 46 46
43 43 43 43 43 44 43 43 43 42 42 41 40 39 39 38 38 38 37 37 37 37 37 35 34 33 33 33 33 33 34 35 36 36 35 34 33 32 33 34 34 34 34 35 36 36 36 36 37 38 38 41 43 44 44 44 44 44 44 44 44 44 44 44 44 45 45 45 45 45 45 45 45 45 45 45 45 45 45 45 45 45 45 45 45 45
44 44 44 44 44 44 44 43 43 43 42 42 41 40 39 38 38 37 36 36 37 37 36 35 34 33 33 33 32 33 33 35 35 35 36 35 33 32 33 34 34 34 34 34 35 36 36 36 36 36 37 38 41 43 44 44 44 44 44 44 44 44 44 44 44 44 44 44 44 44 44 44 44 44 44 44 44 44 44 44 43 44 44 44 44 44
44 44 44 44 44 44 44 43 43 43 42 42 42 41 40 39 38 36 36 37 38 37 36 35 34 33 33 32 32 32 33 34 35 35 36 35 33 33 33 33 34 34 33 34 34 35 36 35 35 35 36 38 39 42 43 43 43 43 43 43 43 43 43 43 43 43 43 43 43 43 43 43 43 43 43 43 43 42 42 42 42 42 42 42 42 42
44 44 44 44 44 44 43 43 43 43 42 42 42 42 41 39 38 37 37 38 38 37 36 35 34 33 33 32 32 33 33 34 34 35 36 35 33 33 33 33 34 34 33 33 34 34 34 34 34 34 35 37 38 39 41 42 42 42 42 43 42 42 42 42 42 42 42 42 42 42 42 42 42 42 42 42 42 42 42 41 41 41 40 40 40 40
40 41 41 42 42 42 42 42 42 43 43 42 42 42 41 40 39 38 38 38 38 37 36 35 34 33 33 33 32 32 33 33 34 35 35 34 33 33 33 33 33 33 33 33 33 33 33 33 33 34 35 37 37 38 38 40 41 41 42 42 42 42 42 42 42 42 42 42 42 42 42 42 42 42 41 41 41 41 41 40 40 39 38 38 38 38
36 36 37 37 38 38 39 40 40 41 42 42 41 41 40 39 39 39 38 38 38 37 36 35 34 34 33 33 33 32 32 33 34 35 34 33 33 33 33 33 32 32 33 33 33 32 31 31 32 33 34 35 36 37 38 38 38 39 40 40 40 41 41 41 41 41 41 41 41 41 41 41 41 41 40 40 40 40 40 39 39 38 37 37 37 36
35 35 35 35 35 36 36 36 37 37 38 38 38 39 39 39 38 38 38 38 38 37 36 35 35 35 35 34 33 33 33 33 35 36 34 33 33 33 33 33 31 31 32 33 33 33 31 30 30 32 33 33 34 35 36 37 37 38 38 38 38 39 40 40 40 40 40 40 40 40 40 40 40 40 40 39 39 39 39 38 38 37 36 35 35 35
35 35 35 35 35 35 35 35 35 35 35 35 36 37 37 38 38 38 38 38 38 38 37 36 35 35 34 33 33 33 33 34 35 36 35 34 33 33 33 32 31 31 32 32 33 33 31 30 30 30 32 32 33 33 34 36 36 37 37 37 37 37 38 38 38 38 38 38 39 39 39 39 39 39 39 39 39 38 38 38 37 37 35 34 33 33
35 35 35 34 34 34 34 34 34 34 34 34 35 35 35 36 36 37 37 37 37 37 37 36 35 34 33 33 33 32 33 34 36 37 37 35 34 33 33 32 32 31 31 31 32 32 31 31 30 30 30 31 32 33 33 34 35 35 35 35 35 35 35 36 36 36 36 36 36 36 37 38 38 38 38 38 38 38 38 37 37 36 35 33 32 32
34 34 34 34 33 33 33 33 33 33 33 33 34 34 35 35 35 35 36 36 36 36 35 35 35 35 34 34 33 33 33 34 36 37 37 35 34 34 33 32 32 32 32 31 31 32 32 31 31 31 30 30 30 31 32 33 33 34 34 33 33 33 33 33 34 34 34 33 33 33 34 34 35 36 37 37 37 37 37 37 36 36 35 34 33 31
33 33 33 33 33 33 33 33 33 33 33 33 33 33 34 34 34 34 34 35 35 35 35 35 35 35 35 35 34 34 33 34 36 37 37 35 35 34 33 33 33 33 33 32 32 32 32 32 32 32 30 29 29 29 31 32 33 33 33 33 32 32 32 33 33 33 32 32 32 31 31 32 33 34 35 35 36 36 36 36 35 35 35 34 33 32
33 32 32 32 32 32 32 32 31 32 32 32 32 33 33 33 33 34 34 34 34 34 35 35 35 36 36 36 35 35 35 35 36 37 36 36 35 34 33 33 33 33 33 33 33 33 32 31 31 31 30 29 29 29 29 31 31 31 31 31 30 30 31 31 32 32 31 31 30 30 29 30 30 31 32 33 33 33 34 34 34 34 34 34 34 33
32 31 31 31 31 31 30 30 30 31 31 31 32 32 33 33 33 33 33 33 33 33 34 34 34 35 35 35 35 35 35 35 35 35 35 35 35 34 34 33 34 34 34 34 33 33 32 31 30 29 29 29 29 29 30 30 29 29 29 29 29 29 29 30 31 31 30 30 29 29 29 28 28 28 28 29 29 29 29 29 30 32 33 33 33 33
30 29 30 30 30 30 29 29 30 31 31 32 32 32 33 33 33 33 33 33 33 33 33 33 33 33 33 34 34 35 34 34 34 34 34 34 35 35 35 34 34 34 34 34 34 34 33 32 30 29 28 28 29 29 29 29 28 28 28 29 29 29 29 29 29 29 29 29 29 28 27 26 26 25 25 25 25 25 25 26 27 28 28 29 30 32
29 29 29 29 29 29 29 30 31 31 32 32 33 33 33 33 33 33 33 33 33 33 33 33 33 33 33 33 33 33 33 33 34 34 33 33 34 35 35 34 34 34 34 34 34 33 33 32 31 30 29 29 28 28 28 28 28 28 28 27 27 27 28 27 27 27 27 27 27 27 26 25 25 25 25 25 25 24 24 24 25 26 25 24 25 26
29 29 29 29 29 30 30 31 32 32 32 32 32 32 32 32 32 32 32 33 33 33 33 33 32 32 32 32 32 32 32 33 33 33 33 33 34 35 35 34 34 33 33 33 33 33 33 32 31 30 29 29 28 28 28 29 29 29 28 26 25 26 27 26 25 25 26 26 26 27 27 26 25 25 25 25 25 25 26 24 25 25 24 22 22 23
29 28 28 29 29 29 30 31 32 32 32 32 31 31 31 32 32 32 32 31 32 32 32 32 31 30 29 29 30 31 31 32 32 33 32 33 33 34 34 34 34 33 33 33 32 32 32 31 30 29 29 29 28 28 28 29 29 29 27 26 26 26 26 25 24 24 24 24 24 25 26 24 24 24 24 24 23 24 27 27 27 27 24 22 21 22
28 28 29 29 30 31 32 32 32 31 31 30 30 30 31 31 31 31 31 30 31 31 32 31 30 29 29 28 29 29 29 30 31 32 32 32 32 32 33 33 33 33 33 32 31 31 31 31 30 29 29 29 29 28 28 28 28 28 28 28 27 25 24 23 22 22 22 22 22 22 22 22 22 22 23 22 22 23 24 26 28 28 27 23 21 21
29 29 29 30 30 31 31 31 30 30 29 29 29 29 30 30 31 30 30 30 30 30 30 30 29 29 28 27 28 28 28 29 30 30 31 32 32 31 31 31 31 32 32 32 31 30 29 29 29 29 29 29 29 28 27 27 27 27 27 27 26 24 23 22 22 21 21 20 20 20 20 21 21 21 21 21 21 21 22 22 22 23 24 23 22 21
29 29 29 30 30 30 29 29 29 29 29 29 29 29 29 30 30 30 29 29 29 29 29 29 29 28 27 27 27 27 28 28 28 29 29 31 31 31 30 30 29 30 30 30 30 29 29 28 28 29 29 29 28 27 26 26 26 25 25 25 24 23 22 22 22 21 20 20 19 18 18 19 20 20 20 20 20 20 20 21 21 22 22 21 21 22
29 29 29 29 29 29 29 29 29 29 29 29 29 29 29 29 29 29 29 29 29 29 29 29 28 28 27 27 27 27 27 27 27 27 28 28 29 29 29 29 29 29 28 28 28 29 29 28 28 28 28 27 27 26 26 25 25 24 24 24 23 22 21 21 20 20 20 19 18 17 17 18 19 20 20 20 20 20 20 20 20 20 21 21 21 21
28 28 28 28 29 29 29 29 29 29 28 28 28 29 29 29 29 29 29 29 28 28 28 28 27 27 26 26 26 26 26 25 26 26 27 27 28 28 28 28 28 28 27 27 27 27 27 27 27 27 27 26 25 24 24 24 24 23 22 22 22 21 20 19 18 18 18 18 16 15 15 17 19 19 18 18 19 19 19 20 20 20 20 20 20 21
28 28 28 28 28 28 28 28 28 28 27 28 28 28 29 29 28 28 28 28 28 28 27 27 26 26 25 25 26 26 25 25 25 25 26 26 26 27 27 27 27 27 27 27 27 27 26 26 26 26 25 25 24 23 22 22 22 22 21 21 21 20 19 18 18 17 17 16 14 13 15 17 18 17 17 17 18 18 18 19 19 19 19 20 20 20
28 28 28 28 28 28 27 27 27 27 27 27 27 28 28 28 29 28 27 27 27 27 26 25 25 25 24 24 25 25 25 24 24 24 25 25 25 26 26 26 26 26 26 26 26 26 26 27 27 26 25 24 24 23 21 21 20 20 20 20 20 19 18 18 18 18 17 15 13 12 14 16 16 16 16 17 17 16 16 17 18 18 18 18 19 20
28 28 28 27 27 27 27 27 27 27 26 26 26 26 26 26 26 26 26 26 26 26 25 25 24 24 24 24 24 24 24 24 24 24 24 24 24 24 24 24 25 25 24 24 23 23 24 24 25 26 27 26 24 22 20 20 20 19 18 17 16 16 17 17 18 18 18 16 15 14 14 15 15 15 16 17 16 15 15 16 18 18 18 18 19 20
28 27 27 27 27 27 26 26 26 26 26 25 25 25 25 25 25 25 25 25 25 25 24 24 24 24 24 24 24 24 24 23 22 22 22 22 22 22 22 23 24 24 24 22 20 19 19 20 21 22 24 26 26 23 19 19 19 19 19 16 14 13 15 15 16 17 19 18 16 15 15 15 16 16 16 16 15 14 14 15 16 17 18 17 18 19